Weather in Uljyanovo

Russia / Kaluga Oblast     53°43′20″N   35°32′13″E
temp.,
°C
wind,
m/s
gust,
m/s
humid.,
%
clouds,
%
prec.,
mm/h
press.,
hPa
HPBL,
m
19 september, sun
sun1900:00+5e71695100 6.8 1017691
03:00+6e61696100 14.6 1016788
06:00+6e71696100 5.5 1013850
09:00+7ese71696100 9.0 1013801
12:00+7ese71696100 5.1 1012820
15:00+7ese61495100 10.6 1012852
18:00+7e51396100 5.9 1011866
21:00+7e41297100 6.6 1011724
20 september, mon
mon2000:00+7e51197100 0.4 1010577
03:00+7e51197100 0.4 1009490
06:00+7ene51197100 0.1 1008480
09:00+8ene51196100 0.1 1008537
12:00+8ene51297100 0.4 1008590
15:00+8ene61297100 3.1 1008508
18:00+7e51198100 3.4 1008627
21:00+7ene4998100 4.7 1009548
21 september, tue
tue2100:00+7e2499100 0.5 1008286
03:00+7ese2698100 1.3 1008302
06:00+7e3798100 0.6 1008382
09:00+8ese3797100 1.8 1008523
12:00+8se3796100 1.2 1009554
15:00+7se3796100 1.8 1009522
18:00+7se2697100 0.8 1010334
21:00+7ese2598100 1.2 1011256
22 september, wed
wed2200:00+7e1497100 0.1 1011185
03:00+6ene1196100 0.3 101145
06:00+6wnw1194100 0.0 101020
09:00+7wnw2496100 0.8 1010325
12:00+8n2396100 1.1 1011329
15:00+7n2596100 1.3 1011360
18:00+7n1498100 0.9 1012241
21:00+6n1298100 1.8 1013144
23 september, thu
thu2300:00+6nne0098100 0.1 101349
03:00+6e0098100 0.4 101356
06:00+7sse1399100 1.1 1013210
09:00+6s3594100 1.5 1014335
12:00+7s3585100 0.1 1014721
15:00+6s3691100 0.2 1014566
18:00+6s3691100 0.1 1014750
21:00+6s2793100 0.1 1014503